Time,TemperatureF,DewpointF,PressureIn,WindDirection,WindDirectionDegrees,WindSpeedMPH,WindSpeedGustMPH,Humidity,HourlyPrecipIn,Conditions,Clouds,dailyrainin,SoftwareType,DateUTC
2013-01-30 00:00:00,62.6,53.5,29.89,South,180,1.8,3.4,72,0.00,,,0.01,WUHU216HW,2013-01-30 05:00:00,
2013-01-30 00:01:00,62.8,54.0,29.89,SSW,203,2.5,3.4,73,0.00,,,0.00,WUHU216HW,2013-01-30 05:01:00,
2013-01-30 00:03:00,62.8,54.0,29.89,SSE,158,1.8,3.8,73,0.00,,,0.00,WUHU216HW,2013-01-30 05:03:00,
2013-01-30 00:08:00,63.0,54.2,29.88,SSW,203,1.8,4.0,73,0.00,,,0.00,WUHU216HW,2013-01-30 05:08:00,
2013-01-30 00:13:00,63.0,54.2,29.87,SSE,158,2.2,4.0,73,0.00,,,0.00,WUHU216HW,2013-01-30 05:13:00,
2013-01-30 00:18:00,63.0,54.2,29.87,SE,135,3.8,4.9,73,0.00,,,0.00,WUHU216HW,2013-01-30 05:18:00,
2013-01-30 00:23:00,62.6,53.8,29.87,SE,135,3.6,4.9,73,0.00,,,0.00,WUHU216HW,2013-01-30 05:23:00,
2013-01-30 00:28:00,62.3,53.5,29.86,SE,135,4.3,4.7,73,0.00,,,0.00,WUHU216HW,2013-01-30 05:28:00,
2013-01-30 00:33:00,61.6,52.5,29.86,ESE,113,3.4,4.7,72,0.00,,,0.00,WUHU216HW,2013-01-30 05:33:00,
2013-01-30 00:38:00,61.2,52.6,29.86,SE,135,2.5,4.3,73,0.00,,,0.00,WUHU216HW,2013-01-30 05:38:00,
2013-01-30 00:43:00,61.0,52.4,29.86,SE,135,2.9,4.0,73,0.00,,,0.00,WUHU216HW,2013-01-30 05:43:00,
2013-01-30 00:48:00,60.8,52.2,29.86,ESE,113,2.0,3.4,73,0.00,,,0.00,WUHU216HW,2013-01-30 05:48:00,
2013-01-30 00:53:00,60.8,52.2,29.84,SE,135,4.3,4.3,73,0.00,,,0.00,WUHU216HW,2013-01-30 05:53:00,
2013-01-30 00:58:00,60.7,52.4,29.85,ESE,113,3.6,4.3,74,0.00,,,0.00,WUHU216HW,2013-01-30 05:58:00,
2013-01-30 01:03:00,60.7,52.4,29.85,SE,135,4.3,4.7,74,0.00,,,0.00,WUHU216HW,2013-01-30 06:03:00,
2013-01-30 01:08:00,60.7,52.7,29.84,ESE,113,4.3,4.7,75,0.00,,,0.00,WUHU216HW,2013-01-30 06:08:00,
2013-01-30 01:13:00,60.7,52.7,29.83,ESE,113,3.1,4.7,75,0.00,,,0.00,WUHU216HW,2013-01-30 06:13:00,
2013-01-30 01:18:00,60.5,52.6,29.84,ESE,113,2.9,4.5,75,0.00,,,0.00,WUHU216HW,2013-01-30 06:18:00,
2013-01-30 01:23:00,60.5,52.9,29.83,ESE,113,4.3,4.5,76,0.00,,,0.00,WUHU216HW,2013-01-30 06:23:00,
2013-01-30 01:28:00,60.3,52.7,29.83,ESE,113,4.0,4.9,76,0.00,,,0.00,WUHU216HW,2013-01-30 06:28:00,
2013-01-30 01:33:00,60.3,53.1,29.82,SE,135,3.4,4.9,77,0.00,,,0.00,WUHU216HW,2013-01-30 06:33:00,
2013-01-30 01:38:00,60.1,52.9,29.83,ESE,113,3.4,4.3,77,0.00,,,0.00,WUHU216HW,2013-01-30 06:38:00,
2013-01-30 01:43:00,60.1,52.9,29.83,ESE,113,4.7,4.7,77,0.00,,,0.00,WUHU216HW,2013-01-30 06:43:00,
2013-01-30 01:48:00,60.1,53.3,29.82,ESE,113,3.8,4.7,78,0.00,,,0.00,WUHU216HW,2013-01-30 06:48:00,
2013-01-30 01:53:00,59.9,53.5,29.82,ESE,113,2.0,4.7,79,0.00,,,0.00,WUHU216HW,2013-01-30 06:53:00,
2013-01-30 01:58:00,59.9,53.5,29.81,ESE,113,2.0,4.5,79,0.00,,,0.00,WUHU216HW,2013-01-30 06:58:00,
2013-01-30 02:03:00,59.8,53.3,29.81,ESE,113,2.2,4.3,79,0.00,,,0.00,WUHU216HW,2013-01-30 07:03:00,
2013-01-30 02:08:00,59.8,53.3,29.82,ESE,113,4.0,4.5,79,0.00,,,0.00,WUHU216HW,2013-01-30 07:08:00,
2013-01-30 02:13:00,59.8,53.6,29.81,ESE,113,4.0,4.7,80,0.00,,,0.00,WUHU216HW,2013-01-30 07:13:00,
2013-01-30 02:18:00,59.8,53.6,29.80,ESE,113,1.3,4.7,80,0.00,,,0.00,WUHU216HW,2013-01-30 07:18:00,
2013-01-30 02:23:00,59.6,53.1,29.80,ESE,113,4.0,4.7,79,0.00,,,0.00,WUHU216HW,2013-01-30 07:23:00,
2013-01-30 02:28:00,59.4,53.3,29.80,ESE,113,3.4,4.0,80,0.00,,,0.00,WUHU216HW,2013-01-30 07:28:00,
2013-01-30 02:33:00,59.6,53.8,29.80,ESE,113,4.7,4.9,81,0.00,,,0.00,WUHU216HW,2013-01-30 07:33:00,
2013-01-30 02:38:00,59.6,53.8,29.79,ESE,113,3.8,4.9,81,0.00,,,0.00,WUHU216HW,2013-01-30 07:38:00,
2013-01-30 02:43:00,59.6,53.8,29.79,SE,135,4.0,5.8,81,0.00,,,0.00,WUHU216HW,2013-01-30 07:43:00,
2013-01-30 02:48:00,59.6,53.8,29.79,ESE,113,3.4,5.8,81,0.00,,,0.00,WUHU216HW,2013-01-30 07:48:00,
2013-01-30 02:53:00,59.6,53.8,29.78,SE,135,3.8,4.5,81,0.00,,,0.00,WUHU216HW,2013-01-30 07:53:00,
2013-01-30 02:58:00,59.6,53.8,29.79,ESE,113,3.6,4.3,81,0.00,,,0.00,WUHU216HW,2013-01-30 07:58:00,
2013-01-30 03:03:00,59.6,53.8,29.78,SE,135,1.8,4.0,81,0.00,,,0.00,WUHU216HW,2013-01-30 08:03:00,
2013-01-30 03:08:00,59.6,53.8,29.78,ESE,113,2.0,3.8,81,0.00,,,0.00,WUHU216HW,2013-01-30 08:08:00,
2013-01-30 03:13:00,59.8,54.0,29.78,ESE,113,3.6,4.0,81,0.00,,,0.00,WUHU216HW,2013-01-30 08:13:00,
2013-01-30 03:18:00,59.9,54.2,29.78,ESE,113,3.1,4.0,81,0.00,,,0.00,WUHU216HW,2013-01-30 08:18:00,
2013-01-30 03:23:00,60.1,54.4,29.79,ESE,113,2.7,4.0,81,0.00,,,0.00,WUHU216HW,2013-01-30 08:23:00,
2013-01-30 03:28:00,60.1,54.4,29.78,ESE,113,3.4,4.0,81,0.00,,,0.00,WUHU216HW,2013-01-30 08:28:00,
2013-01-30 03:33:00,60.1,54.4,29.77,East,90,2.0,4.9,81,0.00,,,0.00,WUHU216HW,2013-01-30 08:33:00,
2013-01-30 03:38:00,60.1,54.4,29.77,ESE,113,2.7,4.9,81,0.00,,,0.00,WUHU216HW,2013-01-30 08:38:00,
2013-01-30 03:43:00,60.1,54.4,29.77,East,90,3.6,3.6,81,0.00,,,0.00,WUHU216HW,2013-01-30 08:43:00,
2013-01-30 03:48:00,60.3,54.6,29.76,SE,135,3.4,3.6,81,0.00,,,0.00,WUHU216HW,2013-01-30 08:48:00,
2013-01-30 03:53:00,60.5,54.4,29.76,SE,135,3.1,3.6,80,0.00,,,0.00,WUHU216HW,2013-01-30 08:53:00,
2013-01-30 03:58:00,60.5,54.4,29.75,SSE,158,1.8,3.6,80,0.00,,,0.00,WUHU216HW,2013-01-30 08:58:00,
2013-01-30 04:03:00,60.7,54.2,29.75,SSE,158,2.2,3.1,79,0.00,,,0.00,WUHU216HW,2013-01-30 09:03:00,
2013-01-30 04:08:00,60.8,54.4,29.75,South,180,2.5,3.4,79,0.00,,,0.00,WUHU216HW,2013-01-30 09:08:00,
2013-01-30 04:13:00,61.4,54.5,29.75,SSE,158,1.6,4.0,78,0.00,,,0.00,WUHU216HW,2013-01-30 09:13:00,
2013-01-30 04:18:00,61.7,54.5,29.75,South,180,1.8,4.7,77,0.00,,,0.00,WUHU216HW,2013-01-30 09:18:00,
2013-01-30 04:23:00,62.1,54.5,29.75,SSE,158,2.5,4.7,76,0.00,,,0.00,WUHU216HW,2013-01-30 09:23:00,
2013-01-30 04:28:00,62.3,54.5,29.74,SW,225,3.6,3.6,76,0.00,,,0.00,WUHU216HW,2013-01-30 09:28:00,
2013-01-30 04:33:00,62.3,54.5,29.74,South,180,2.0,3.6,76,0.00,,,0.00,WUHU216HW,2013-01-30 09:33:00,
2013-01-30 04:38:00,62.6,54.5,29.74,South,180,1.8,3.6,75,0.00,,,0.00,WUHU216HW,2013-01-30 09:38:00,
2013-01-30 04:43:00,62.6,54.5,29.73,South,180,1.8,3.8,75,0.00,,,0.00,WUHU216HW,2013-01-30 09:43:00,
2013-01-30 04:48:00,62.8,55.1,29.73,SSE,158,2.7,3.8,76,0.00,,,0.00,WUHU216HW,2013-01-30 09:48:00,
2013-01-30 04:53:00,63.0,55.3,29.73,South,180,2.5,3.6,76,0.00,,,0.00,WUHU216HW,2013-01-30 09:53:00,
2013-01-30 04:58:00,63.0,55.3,29.72,South,180,3.4,4.5,76,0.00,,,0.00,WUHU216HW,2013-01-30 09:58:00,
2013-01-30 05:03:00,63.4,55.6,29.72,SSE,158,2.2,4.5,76,0.00,,,0.00,WUHU216HW,2013-01-30 10:03:00,
2013-01-30 05:08:00,63.5,55.4,29.72,SSE,158,2.5,4.3,75,0.00,,,0.00,WUHU216HW,2013-01-30 10:08:00,
2013-01-30 05:13:00,63.5,55.4,29.72,SSW,203,3.6,4.3,75,0.00,,,0.00,WUHU216HW,2013-01-30 10:13:00,
2013-01-30 05:18:00,63.7,55.6,29.71,SSE,158,2.7,4.7,75,0.00,,,0.00,WUHU216HW,2013-01-30 10:18:00,
2013-01-30 05:23:00,63.9,56.2,29.70,SSE,158,3.1,4.7,76,0.00,,,0.00,WUHU216HW,2013-01-30 10:23:00,
2013-01-30 05:28:00,63.9,56.2,29.71,SSE,158,5.4,5.4,76,0.00,,,0.00,WUHU216HW,2013-01-30 10:28:00,
2013-01-30 05:33:00,64.1,56.3,29.71,SSW,203,3.6,5.6,76,0.00,,,0.00,WUHU216HW,2013-01-30 10:33:00,
2013-01-30 05:38:00,64.4,56.3,29.71,SSE,158,2.5,5.6,75,0.00,,,0.00,WUHU216HW,2013-01-30 10:38:00,
2013-01-30 05:43:00,64.4,56.3,29.71,SSW,203,3.8,4.5,75,0.00,,,0.00,WUHU216HW,2013-01-30 10:43:00,
2013-01-30 05:48:00,64.6,56.5,29.71,South,180,3.4,4.5,75,0.00,,,0.00,WUHU216HW,2013-01-30 10:48:00,
2013-01-30 05:53:00,64.8,56.7,29.70,SSW,203,2.9,4.7,75,0.00,,,0.00,WUHU216HW,2013-01-30 10:53:00,
2013-01-30 05:58:00,64.6,56.5,29.69,SE,135,4.3,4.7,75,0.00,,,0.00,WUHU216HW,2013-01-30 10:58:00,
2013-01-30 06:03:00,64.4,56.7,29.69,South,180,1.8,4.9,76,0.00,,,0.00,WUHU216HW,2013-01-30 11:03:00,
2013-01-30 06:08:00,64.4,56.7,29.69,South,180,2.5,4.9,76,0.00,,,0.00,WUHU216HW,2013-01-30 11:08:00,
2013-01-30 06:13:00,64.3,56.5,29.68,South,180,4.0,5.4,76,0.00,,,0.00,WUHU216HW,2013-01-30 11:13:00,
2013-01-30 06:18:00,64.3,56.5,29.68,SSE,158,1.8,5.4,76,0.00,,,0.00,WUHU216HW,2013-01-30 11:18:00,
2013-01-30 06:23:00,64.4,56.7,29.68,South,180,3.8,4.5,76,0.00,,,0.00,WUHU216HW,2013-01-30 11:23:00,
2013-01-30 06:28:00,64.3,56.5,29.67,SSW,203,3.4,4.3,76,0.00,,,0.00,WUHU216HW,2013-01-30 11:28:00,
2013-01-30 06:33:00,64.3,56.5,29.66,SSE,158,2.5,4.7,76,0.00,,,0.00,WUHU216HW,2013-01-30 11:33:00,
2013-01-30 06:38:00,64.1,56.3,29.66,SSE,158,1.8,4.7,76,0.00,,,0.00,WUHU216HW,2013-01-30 11:38:00,
2013-01-30 06:43:00,64.1,56.3,29.66,SSE,158,2.5,4.0,76,0.00,,,0.00,WUHU216HW,2013-01-30 11:43:00,
2013-01-30 06:48:00,64.1,56.3,29.66,SSE,158,2.5,3.8,76,0.00,,,0.00,WUHU216HW,2013-01-30 11:48:00,
2013-01-30 06:53:00,63.9,56.2,29.66,SSE,158,3.4,4.0,76,0.00,,,0.00,WUHU216HW,2013-01-30 11:53:00,
2013-01-30 06:58:00,63.9,56.2,29.66,SSE,158,2.0,4.0,76,0.00,,,0.00,WUHU216HW,2013-01-30 11:58:00,
2013-01-30 07:03:00,63.9,56.2,29.67,South,180,1.6,3.4,76,0.00,,,0.00,WUHU216HW,2013-01-30 12:03:00,
2013-01-30 07:08:00,63.9,56.2,29.66,South,180,2.7,3.4,76,0.00,,,0.00,WUHU216HW,2013-01-30 12:08:00,
2013-01-30 07:13:00,63.9,56.2,29.66,SSE,158,3.4,4.0,76,0.00,,,0.00,WUHU216HW,2013-01-30 12:13:00,
2013-01-30 07:18:00,63.9,56.2,29.66,SSE,158,1.8,4.0,76,0.00,,,0.00,WUHU216HW,2013-01-30 12:18:00,
2013-01-30 07:23:00,63.9,56.2,29.66,South,180,2.5,3.4,76,0.00,,,0.00,WUHU216HW,2013-01-30 12:23:00,
2013-01-30 07:28:00,63.9,56.2,29.67,SSE,158,2.0,3.4,76,0.00,,,0.00,WUHU216HW,2013-01-30 12:28:00,
2013-01-30 07:33:00,64.1,56.3,29.66,SE,135,3.1,3.4,76,0.00,,,0.00,WUHU216HW,2013-01-30 12:33:00,
2013-01-30 07:38:00,64.1,56.3,29.65,SE,135,2.0,3.1,76,0.00,,,0.00,WUHU216HW,2013-01-30 12:38:00,
2013-01-30 07:44:00,64.3,56.5,29.66,South,180,2.2,3.1,76,0.00,,,0.00,WUHU216HW,2013-01-30 12:44:00,
2013-01-30 07:49:00,64.3,56.5,29.66,SSE,158,1.1,2.9,76,0.00,,,0.00,WUHU216HW,2013-01-30 12:49:00,
2013-01-30 07:54:00,64.4,56.7,29.67,SSW,203,1.8,4.3,76,0.00,,,0.00,WUHU216HW,2013-01-30 12:54:00,
2013-01-30 07:59:00,64.8,56.7,29.66,South,180,2.0,4.3,75,0.00,,,0.00,WUHU216HW,2013-01-30 12:59:00,
2013-01-30 08:04:00,65.3,57.2,29.66,SW,225,2.5,4.3,75,0.00,,,0.00,WUHU216HW,2013-01-30 13:04:00,
2013-01-30 08:09:00,65.7,57.2,29.66,South,180,2.5,4.9,74,0.00,,,0.00,WUHU216HW,2013-01-30 13:09:00,
2013-01-30 08:14:00,65.9,57.3,29.66,SSW,203,2.7,4.9,74,0.00,,,0.00,WUHU216HW,2013-01-30 13:14:00,
2013-01-30 08:19:00,65.9,57.3,29.67,SW,225,3.4,4.9,74,0.00,,,0.00,WUHU216HW,2013-01-30 13:19:00,
2013-01-30 08:24:00,66.2,57.7,29.66,SSW,203,2.0,4.9,74,0.00,,,0.00,WUHU216HW,2013-01-30 13:24:00,
2013-01-30 08:29:00,66.2,57.7,29.66,WSW,248,2.5,3.6,74,0.00,,,0.00,WUHU216HW,2013-01-30 13:29:00,
2013-01-30 08:34:00,66.2,57.3,29.66,SW,225,2.5,4.0,73,0.00,,,0.00,WUHU216HW,2013-01-30 13:34:00,
2013-01-30 08:39:00,66.4,57.5,29.66,South,180,2.9,5.4,73,0.00,,,0.00,WUHU216HW,2013-01-30 13:39:00,
2013-01-30 08:44:00,66.4,57.9,29.66,SSW,203,3.6,5.4,74,0.00,,,0.00,WUHU216HW,2013-01-30 13:44:00,
2013-01-30 08:49:00,66.4,57.9,29.66,SSW,203,2.5,5.4,74,0.00,,,0.00,WUHU216HW,2013-01-30 13:49:00,
2013-01-30 08:54:00,66.2,57.7,29.66,South,180,4.3,5.4,74,0.00,,,0.00,WUHU216HW,2013-01-30 13:54:00,
2013-01-30 08:59:00,66.2,57.7,29.65,SSW,203,2.5,5.8,74,0.00,,,0.00,WUHU216HW,2013-01-30 13:59:00,
2013-01-30 09:04:00,66.2,57.7,29.65,SW,225,2.0,5.8,74,0.00,,,0.00,WUHU216HW,2013-01-30 14:04:00,
2013-01-30 09:09:00,66.1,57.9,29.64,South,180,2.5,4.7,75,0.00,,,0.00,WUHU216HW,2013-01-30 14:09:00,
2013-01-30 09:14:00,65.9,57.7,29.65,SW,225,2.5,5.4,75,0.00,,,0.00,WUHU216HW,2013-01-30 14:14:00,
2013-01-30 09:19:00,65.9,58.1,29.65,South,180,1.3,5.4,76,0.00,,,0.00,WUHU216HW,2013-01-30 14:19:00,
2013-01-30 09:24:00,65.9,58.1,29.65,SSW,203,2.0,4.7,76,0.00,,,0.00,WUHU216HW,2013-01-30 14:24:00,
2013-01-30 09:29:00,65.9,58.1,29.64,South,180,1.8,3.8,76,0.00,,,0.00,WUHU216HW,2013-01-30 14:29:00,
2013-01-30 09:34:00,65.7,57.9,29.64,SSE,158,3.4,3.6,76,0.00,,,0.00,WUHU216HW,2013-01-30 14:34:00,
2013-01-30 09:39:00,65.5,57.8,29.65,SSE,158,1.1,3.4,76,0.00,,,0.00,WUHU216HW,2013-01-30 14:39:00,
2013-01-30 09:44:00,65.3,58.0,29.65,WSW,248,0.4,3.4,77,0.00,,,0.00,WUHU216HW,2013-01-30 14:44:00,
2013-01-30 09:49:00,65.2,57.8,29.66,NNW,338,1.8,2.2,77,0.00,,,0.00,WUHU216HW,2013-01-30 14:49:00,
2013-01-30 09:54:00,64.8,57.8,29.67,NNW,338,3.8,6.3,78,0.00,,,0.00,WUHU216HW,2013-01-30 14:54:00,
2013-01-30 09:59:00,63.5,56.2,29.67,NNW,338,3.4,6.3,77,0.04,,,0.04,WUHU216HW,2013-01-30 14:59:00,
2013-01-30 10:04:00,61.9,55.4,29.70,West,270,7.2,7.6,79,0.17,,,0.17,WUHU216HW,2013-01-30 15:04:00,
2013-01-30 10:09:00,59.9,54.2,29.69,NNW,338,3.6,8.5,81,0.33,,,0.33,WUHU216HW,2013-01-30 15:09:00,
2013-01-30 10:14:00,59.0,53.6,29.69,NNW,338,3.4,8.5,82,0.39,,,0.38,WUHU216HW,2013-01-30 15:14:00,
2013-01-30 10:19:00,58.7,53.6,29.67,NNE,23,4.3,7.4,83,0.43,,,0.42,WUHU216HW,2013-01-30 15:19:00,
2013-01-30 10:24:00,58.1,54.0,29.70,NW,315,5.8,7.4,86,0.43,,,0.42,WUHU216HW,2013-01-30 15:24:00,
2013-01-30 10:29:00,57.6,53.1,29.70,North,0,2.5,5.8,85,0.50,,,0.49,WUHU216HW,2013-01-30 15:29:00,
2013-01-30 10:34:00,57.4,52.9,29.68,North,0,2.2,5.8,85,0.55,,,0.55,WUHU216HW,2013-01-30 15:34:00,
2013-01-30 10:39:00,57.2,52.7,29.69,North,0,1.3,4.0,85,0.58,,,0.58,WUHU216HW,2013-01-30 15:39:00,
2013-01-30 10:44:00,57.2,52.7,29.69,North,0,0.4,2.9,85,0.59,,,0.58,WUHU216HW,2013-01-30 15:44:00,
2013-01-30 10:49:00,57.1,52.6,29.69,West,270,0.0,2.9,85,0.59,,,0.58,WUHU216HW,2013-01-30 15:49:00,
2013-01-30 10:54:00,56.9,52.8,29.70,West,270,0.4,1.1,86,0.60,,,0.61,WUHU216HW,2013-01-30 15:54:00,
2013-01-30 10:59:00,56.9,52.8,29.68,NNE,23,0.9,2.5,86,0.61,,,0.66,WUHU216HW,2013-01-30 15:59:00,
2013-01-30 11:04:00,56.7,52.6,29.69,South,180,0.0,2.5,86,0.53,,,0.70,WUHU216HW,2013-01-30 16:04:00,
2013-01-30 11:09:00,56.7,52.6,29.68,North,0,0.7,1.8,86,0.37,,,0.75,WUHU216HW,2013-01-30 16:09:00,
2013-01-30 11:14:00,56.5,52.4,29.67,North,0,1.1,1.6,86,0.39,,,0.79,WUHU216HW,2013-01-30 16:14:00,
2013-01-30 11:19:00,56.5,52.4,29.68,North,0,0.0,1.6,86,0.41,,,0.83,WUHU216HW,2013-01-30 16:19:00,
2013-01-30 11:24:00,56.5,52.7,29.67,ENE,68,2.0,2.0,87,0.45,,,0.87,WUHU216HW,2013-01-30 16:24:00,
2013-01-30 11:29:00,56.3,52.5,29.68,South,180,2.0,2.5,87,0.39,,,0.91,WUHU216HW,2013-01-30 16:29:00,
2013-01-30 11:34:00,56.2,52.3,29.68,SE,135,0.7,2.5,87,0.39,,,0.95,WUHU216HW,2013-01-30 16:34:00,
2013-01-30 11:39:00,56.2,52.7,29.67,SE,135,1.3,1.8,88,0.41,,,0.98,WUHU216HW,2013-01-30 16:39:00,
2013-01-30 11:44:00,56.2,52.7,29.67,SE,135,0.7,1.8,88,0.40,,,0.98,WUHU216HW,2013-01-30 16:44:00,
2013-01-30 11:49:00,56.0,52.5,29.66,South,180,2.0,3.1,88,0.40,,,0.99,WUHU216HW,2013-01-30 16:49:00,
2013-01-30 11:54:00,56.0,52.5,29.65,ESE,113,2.2,3.1,88,0.37,,,0.99,WUHU216HW,2013-01-30 16:54:00,
2013-01-30 11:59:00,55.8,52.3,29.65,SE,135,2.5,2.7,88,0.35,,,1.00,WUHU216HW,2013-01-30 16:59:00,
2013-01-30 12:04:00,55.8,52.3,29.65,ESE,113,2.5,3.4,88,0.33,,,1.03,WUHU216HW,2013-01-30 17:04:00,
2013-01-30 12:09:00,55.8,52.3,29.65,SE,135,2.0,3.4,88,0.28,,,1.05,WUHU216HW,2013-01-30 17:09:00,
2013-01-30 12:14:00,55.6,52.1,29.67,SSE,158,2.0,2.9,88,0.28,,,1.07,WUHU216HW,2013-01-30 17:14:00,
2013-01-30 12:19:00,55.6,52.4,29.68,South,180,1.3,2.5,89,0.28,,,1.12,WUHU216HW,2013-01-30 17:19:00,
2013-01-30 12:24:00,55.6,52.4,29.67,SSW,203,1.1,2.5,89,0.28,,,1.16,WUHU216HW,2013-01-30 17:24:00,
2013-01-30 12:29:00,55.6,52.4,29.64,SE,135,1.6,2.5,89,0.25,,,1.20,WUHU216HW,2013-01-30 17:29:00,
2013-01-30 12:34:00,55.6,52.4,29.62,East,90,1.6,3.1,89,0.23,,,1.21,WUHU216HW,2013-01-30 17:34:00,
2013-01-30 12:39:00,55.4,52.2,29.62,SE,135,2.7,3.1,89,0.23,,,1.21,WUHU216HW,2013-01-30 17:39:00,
2013-01-30 12:44:00,55.4,52.2,29.63,SE,135,2.0,3.1,89,0.25,,,1.24,WUHU216HW,2013-01-30 17:44:00,
2013-01-30 12:49:00,55.4,52.2,29.63,SE,135,2.0,3.4,89,0.28,,,1.27,WUHU216HW,2013-01-30 17:49:00,
2013-01-30 12:54:00,55.4,52.2,29.63,SSE,158,2.7,4.3,89,0.31,,,1.31,WUHU216HW,2013-01-30 17:54:00,
2013-01-30 12:59:00,55.4,52.2,29.61,SSE,158,3.1,4.3,89,0.33,,,1.35,WUHU216HW,2013-01-30 17:59:00,
2013-01-30 13:04:00,55.4,52.2,29.59,SE,135,2.7,3.1,89,0.35,,,1.38,WUHU216HW,2013-01-30 18:04:00,
2013-01-30 13:09:00,55.4,52.2,29.60,SSE,158,1.8,3.1,89,0.33,,,1.40,WUHU216HW,2013-01-30 18:09:00,
2013-01-30 13:14:00,55.4,52.2,29.60,SSE,158,0.4,2.7,89,0.35,,,1.45,WUHU216HW,2013-01-30 18:14:00,
2013-01-30 13:19:00,55.4,52.2,29.60,SW,225,1.1,2.0,89,0.37,,,1.50,WUHU216HW,2013-01-30 18:19:00,
2013-01-30 13:24:00,55.4,52.6,29.62,South,180,3.4,4.0,90,0.37,,,1.53,WUHU216HW,2013-01-30 18:24:00,
2013-01-30 13:29:00,55.3,52.4,29.62,SSW,203,2.9,4.0,90,0.35,,,1.56,WUHU216HW,2013-01-30 18:29:00,
2013-01-30 13:34:00,55.3,52.4,29.61,SSW,203,1.8,4.3,90,0.37,,,1.58,WUHU216HW,2013-01-30 18:34:00,
2013-01-30 13:39:00,55.3,52.4,29.61,SSE,158,2.2,4.3,90,0.39,,,1.61,WUHU216HW,2013-01-30 18:39:00,
2013-01-30 13:44:00,55.3,52.4,29.60,SSE,158,2.0,4.0,90,0.40,,,1.63,WUHU216HW,2013-01-30 18:44:00,
2013-01-30 13:49:00,55.3,52.4,29.61,SSW,203,3.1,3.8,90,0.37,,,1.65,WUHU216HW,2013-01-30 18:49:00,
2013-01-30 13:54:00,55.3,52.7,29.61,South,180,1.8,4.0,91,0.35,,,1.68,WUHU216HW,2013-01-30 18:54:00,
2013-01-30 13:59:00,55.3,52.7,29.61,SSW,203,4.7,4.7,91,0.35,,,1.70,WUHU216HW,2013-01-30 18:59:00,
2013-01-30 14:04:00,55.1,52.5,29.59,South,180,2.0,4.7,91,0.37,,,1.75,WUHU216HW,2013-01-30 19:04:00,
2013-01-30 14:09:00,55.1,52.5,29.59,South,180,2.2,4.7,91,0.33,,,1.77,WUHU216HW,2013-01-30 19:09:00,
2013-01-30 14:14:00,55.1,52.5,29.58,South,180,1.8,4.0,91,0.30,,,1.77,WUHU216HW,2013-01-30 19:14:00,
2013-01-30 14:19:00,55.1,52.5,29.57,SSE,158,1.3,3.1,91,0.30,,,1.79,WUHU216HW,2013-01-30 19:19:00,
2013-01-30 14:24:00,55.3,52.7,29.57,SSW,203,2.5,3.6,91,0.28,,,1.81,WUHU216HW,2013-01-30 19:24:00,
2013-01-30 14:29:00,55.3,52.7,29.57,SSW,203,3.4,4.3,91,0.22,,,1.81,WUHU216HW,2013-01-30 19:29:00,
2013-01-30 14:34:00,55.3,52.7,29.57,SSE,158,2.7,4.3,91,0.21,,,1.82,WUHU216HW,2013-01-30 19:34:00,
2013-01-30 14:39:00,55.3,52.7,29.56,SSW,203,2.5,3.4,91,0.22,,,1.84,WUHU216HW,2013-01-30 19:39:00,
2013-01-30 14:44:00,55.4,52.8,29.56,SE,135,3.4,3.4,91,0.21,,,1.84,WUHU216HW,2013-01-30 19:44:00,
2013-01-30 14:49:00,55.4,52.8,29.56,SSE,158,2.2,4.0,91,0.17,,,1.84,WUHU216HW,2013-01-30 19:49:00,
2013-01-30 14:54:00,55.4,52.8,29.55,South,180,3.4,4.0,91,0.17,,,1.86,WUHU216HW,2013-01-30 19:54:00,
2013-01-30 14:59:00,55.4,52.8,29.54,SSE,158,1.8,3.4,91,0.15,,,1.86,WUHU216HW,2013-01-30 19:59:00,
2013-01-30 15:04:00,55.4,52.8,29.55,SE,135,1.8,3.4,91,0.13,,,1.88,WUHU216HW,2013-01-30 20:04:00,
2013-01-30 15:09:00,55.4,52.8,29.55,South,180,1.8,3.4,91,0.11,,,1.89,WUHU216HW,2013-01-30 20:09:00,
2013-01-30 15:14:00,55.6,53.0,29.55,SW,225,2.5,3.1,91,0.11,,,1.90,WUHU216HW,2013-01-30 20:14:00,
2013-01-30 15:19:00,55.6,53.0,29.54,SSE,158,3.4,5.6,91,0.11,,,1.91,WUHU216HW,2013-01-30 20:19:00,
2013-01-30 15:24:00,55.6,53.0,29.54,SSW,203,2.0,5.6,91,0.12,,,1.93,WUHU216HW,2013-01-30 20:24:00,
2013-01-30 15:29:00,55.6,53.0,29.54,South,180,3.4,4.7,91,0.14,,,1.96,WUHU216HW,2013-01-30 20:29:00,
2013-01-30 15:34:00,55.6,53.0,29.54,SW,225,1.8,4.7,91,0.14,,,1.97,WUHU216HW,2013-01-30 20:34:00,
2013-01-30 15:39:00,55.6,53.3,29.53,SW,225,3.8,4.3,92,0.15,,,1.99,WUHU216HW,2013-01-30 20:39:00,
2013-01-30 15:44:00,55.8,53.5,29.52,WSW,248,3.1,4.3,92,0.16,,,2.01,WUHU216HW,2013-01-30 20:44:00,
2013-01-30 15:49:00,55.6,53.3,29.51,SSW,203,2.5,3.8,92,0.16,,,2.02,WUHU216HW,2013-01-30 20:49:00,
2013-01-30 15:54:00,55.6,53.3,29.52,South,180,2.2,3.1,92,0.18,,,2.04,WUHU216HW,2013-01-30 20:54:00,
2013-01-30 15:59:00,55.6,53.3,29.52,SW,225,2.5,4.0,92,0.18,,,2.05,WUHU216HW,2013-01-30 20:59:00,
2013-01-30 16:04:00,55.6,53.3,29.53,SSW,203,3.6,4.7,92,0.18,,,2.05,WUHU216HW,2013-01-30 21:04:00,
2013-01-30 16:09:00,55.6,53.3,29.53,SW,225,2.5,4.7,92,0.17,,,2.07,WUHU216HW,2013-01-30 21:09:00,
2013-01-30 16:14:00,55.6,53.3,29.53,South,180,4.0,4.0,92,0.17,,,2.08,WUHU216HW,2013-01-30 21:14:00,
2013-01-30 16:19:00,55.6,53.3,29.52,WSW,248,1.3,4.9,92,0.17,,,2.09,WUHU216HW,2013-01-30 21:19:00,
2013-01-30 16:24:00,55.6,53.3,29.52,WSW,248,4.0,4.9,92,0.17,,,2.10,WUHU216HW,2013-01-30 21:24:00,
2013-01-30 16:29:00,55.6,53.3,29.53,West,270,3.1,5.1,92,0.14,,,2.11,WUHU216HW,2013-01-30 21:29:00,
2013-01-30 16:34:00,55.4,53.1,29.53,West,270,6.7,6.7,92,0.14,,,2.12,WUHU216HW,2013-01-30 21:34:00,
2013-01-30 16:39:00,55.4,53.1,29.53,WSW,248,3.8,6.7,92,0.14,,,2.14,WUHU216HW,2013-01-30 21:39:00,
2013-01-30 16:44:00,55.3,52.9,29.54,WNW,293,7.6,7.6,92,0.14,,,2.15,WUHU216HW,2013-01-30 21:44:00,
2013-01-30 16:49:00,54.9,52.6,29.55,WNW,293,6.3,8.5,92,0.13,,,2.16,WUHU216HW,2013-01-30 21:49:00,
2013-01-30 16:54:00,54.4,51.8,29.55,West,270,9.2,10.3,91,0.14,,,2.18,WUHU216HW,2013-01-30 21:54:00,
2013-01-30 16:59:00,52.7,48.6,29.57,NW,315,14.8,14.8,86,0.14,,,2.19,WUHU216HW,2013-01-30 21:59:00,
2013-01-30 17:04:00,51.5,47.7,29.57,NNW,338,6.3,14.8,87,0.14,,,2.20,WUHU216HW,2013-01-30 22:04:00,
2013-01-30 17:09:00,50.8,46.6,29.57,West,270,6.3,14.8,86,0.13,,,2.21,WUHU216HW,2013-01-30 22:09:00,
2013-01-30 17:14:00,50.4,46.6,29.56,WNW,293,6.3,9.8,87,0.13,,,2.22,WUHU216HW,2013-01-30 22:14:00,
2013-01-30 17:19:00,50.0,46.5,29.55,WSW,248,5.4,8.5,88,0.13,,,2.22,WUHU216HW,2013-01-30 22:19:00,
2013-01-30 17:24:00,49.9,46.4,29.55,NW,315,6.5,6.7,88,0.13,,,2.23,WUHU216HW,2013-01-30 22:24:00,
2013-01-30 17:29:00,49.7,46.3,29.57,West,270,7.4,7.4,88,0.11,,,2.23,WUHU216HW,2013-01-30 22:29:00,
2013-01-30 17:34:00,49.5,46.1,29.58,West,270,9.8,9.8,88,0.11,,,2.24,WUHU216HW,2013-01-30 22:34:00,
2013-01-30 17:39:00,49.1,45.4,29.58,West,270,4.9,9.8,87,0.11,,,2.25,WUHU216HW,2013-01-30 22:39:00,
2013-01-30 17:44:00,49.0,45.5,29.58,WNW,293,5.4,9.8,88,0.11,,,2.26,WUHU216HW,2013-01-30 22:44:00,
2013-01-30 17:49:00,48.6,45.2,29.59,West,270,7.4,8.1,88,0.09,,,2.26,WUHU216HW,2013-01-30 22:49:00,
2013-01-30 17:54:00,48.2,44.9,29.57,NW,315,4.9,9.8,88,0.10,,,2.28,WUHU216HW,2013-01-30 22:54:00,
2013-01-30 17:59:00,48.1,44.7,29.57,WSW,248,3.4,9.8,88,0.10,,,2.29,WUHU216HW,2013-01-30 22:59:00,
2013-01-30 18:04:00,47.9,44.6,29.58,WNW,293,4.9,6.5,88,0.10,,,2.30,WUHU216HW,2013-01-30 23:04:00,
2013-01-30 18:09:00,47.7,44.6,29.59,WNW,293,2.7,5.6,89,0.09,,,2.30,WUHU216HW,2013-01-30 23:09:00,
2013-01-30 18:14:00,47.7,44.6,29.56,WNW,293,3.6,5.4,89,0.10,,,2.33,WUHU216HW,2013-01-30 23:14:00,
2013-01-30 18:19:00,47.5,44.5,29.56,WSW,248,3.4,5.4,89,0.09,,,2.33,WUHU216HW,2013-01-30 23:19:00,
2013-01-30 18:24:00,47.5,44.5,29.58,West,270,3.6,4.7,89,0.10,,,2.33,WUHU216HW,2013-01-30 23:24:00,
2013-01-30 18:29:00,47.3,44.4,29.59,WNW,293,3.4,4.9,89,0.10,,,2.33,WUHU216HW,2013-01-30 23:29:00,
2013-01-30 18:34:00,47.5,44.8,29.60,WSW,248,2.5,4.9,90,0.09,,,2.33,WUHU216HW,2013-01-30 23:34:00,
2013-01-30 18:39:00,47.5,44.5,29.57,South,180,3.8,4.9,89,0.09,,,2.34,WUHU216HW,2013-01-30 23:39:00,
2013-01-30 18:44:00,47.5,44.8,29.56,WSW,248,3.4,6.0,90,0.08,,,2.34,WUHU216HW,2013-01-30 23:44:00,
2013-01-30 18:49:00,47.5,44.8,29.55,SSW,203,3.4,6.0,90,0.07,,,2.34,WUHU216HW,2013-01-30 23:49:00,
2013-01-30 18:54:00,47.3,44.6,29.54,SW,225,4.0,4.7,90,0.07,,,2.35,WUHU216HW,2013-01-30 23:54:00,
2013-01-30 18:59:00,47.2,44.5,29.55,SW,225,2.7,4.7,90,0.07,,,2.36,WUHU216HW,2013-01-30 23:59:00,
2013-01-30 19:04:00,47.2,44.5,29.53,SW,225,2.7,3.4,90,0.06,,,2.36,WUHU216HW,2013-01-31 00:04:00,
2013-01-30 19:09:00,47.0,44.3,29.54,SSW,203,3.8,3.8,90,0.05,,,2.36,WUHU216HW,2013-01-31 00:09:00,
2013-01-30 19:14:00,46.8,44.1,29.55,SSW,203,2.7,3.8,90,0.04,,,2.36,WUHU216HW,2013-01-31 00:14:00,
2013-01-30 19:19:00,46.8,44.1,29.56,South,180,1.6,3.8,90,0.04,,,2.36,WUHU216HW,2013-01-31 00:19:00,
2013-01-30 19:24:00,46.8,44.1,29.56,SSW,203,1.1,2.9,90,0.03,,,2.36,WUHU216HW,2013-01-31 00:24:00,
2013-01-30 19:29:00,46.6,43.9,29.56,WNW,293,1.8,2.7,90,0.03,,,2.36,WUHU216HW,2013-01-31 00:29:00,
2013-01-30 19:34:00,46.4,43.7,29.57,West,270,1.1,2.7,90,0.02,,,2.36,WUHU216HW,2013-01-31 00:34:00,
2013-01-30 19:39:00,46.4,43.7,29.56,SW,225,1.1,2.7,90,0.02,,,2.36,WUHU216HW,2013-01-31 00:39:00,
2013-01-30 19:44:00,46.3,43.6,29.57,WSW,248,1.6,2.2,90,0.02,,,2.36,WUHU216HW,2013-01-31 00:44:00,
2013-01-30 19:49:00,46.3,43.6,29.56,WSW,248,1.8,2.5,90,0.03,,,2.37,WUHU216HW,2013-01-31 00:49:00,
2013-01-30 19:54:00,46.1,43.4,29.56,North,0,1.6,3.1,90,0.02,,,2.37,WUHU216HW,2013-01-31 00:54:00,
2013-01-30 19:59:00,46.1,43.4,29.55,West,270,1.3,4.3,90,0.01,,,2.37,WUHU216HW,2013-01-31 00:59:00,
2013-01-30 20:04:00,46.1,43.4,29.54,SSE,158,2.0,4.3,90,0.01,,,2.37,WUHU216HW,2013-01-31 01:04:00,
2013-01-30 20:09:00,46.1,43.4,29.53,WSW,248,1.6,4.3,90,0.01,,,2.37,WUHU216HW,2013-01-31 01:09:00,
2013-01-30 20:14:00,45.9,43.2,29.54,WSW,248,3.1,3.4,90,0.01,,,2.37,WUHU216HW,2013-01-31 01:14:00,
2013-01-30 20:19:00,45.9,43.2,29.54,SW,225,1.8,3.4,90,0.02,,,2.38,WUHU216HW,2013-01-31 01:19:00,
2013-01-30 20:24:00,46.1,43.4,29.54,West,270,1.3,3.8,90,0.02,,,2.38,WUHU216HW,2013-01-31 01:24:00,
2013-01-30 20:29:00,45.9,42.9,29.54,West,270,2.7,3.8,89,0.02,,,2.38,WUHU216HW,2013-01-31 01:29:00,
2013-01-30 20:34:00,45.9,42.6,29.54,WSW,248,2.0,4.7,88,0.02,,,2.38,WUHU216HW,2013-01-31 01:34:00,
2013-01-30 20:39:00,46.1,42.8,29.55,WSW,248,2.5,4.7,88,0.02,,,2.38,WUHU216HW,2013-01-31 01:39:00,
2013-01-30 20:44:00,46.1,42.8,29.54,WSW,248,2.0,3.4,88,0.01,,,2.38,WUHU216HW,2013-01-31 01:44:00,
2013-01-30 20:49:00,46.1,42.8,29.54,WSW,248,2.5,4.0,88,0.01,,,2.38,WUHU216HW,2013-01-31 01:49:00,
2013-01-30 20:54:00,46.3,42.7,29.54,WSW,248,2.0,4.0,87,0.01,,,2.38,WUHU216HW,2013-01-31 01:54:00,
2013-01-30 20:59:00,46.1,42.1,29.53,West,270,2.7,4.0,86,0.01,,,2.38,WUHU216HW,2013-01-31 01:59:00,
2013-01-30 21:04:00,46.1,42.5,29.53,WSW,248,2.5,3.4,87,0.01,,,2.38,WUHU216HW,2013-01-31 02:04:00,
2013-01-30 21:09:00,46.1,42.1,29.52,West,270,3.4,3.4,86,0.01,,,2.38,WUHU216HW,2013-01-31 02:09:00,
2013-01-30 21:14:00,46.1,42.1,29.52,WSW,248,2.2,3.4,86,0.01,,,2.38,WUHU216HW,2013-01-31 02:14:00,
2013-01-30 21:19:00,46.1,42.1,29.54,West,270,2.9,3.4,86,0.00,,,2.38,WUHU216HW,2013-01-31 02:19:00,
2013-01-30 21:24:00,46.1,42.1,29.53,WSW,248,2.2,3.4,86,0.00,,,2.38,WUHU216HW,2013-01-31 02:24:00,
2013-01-30 21:29:00,46.1,41.9,29.54,SW,225,3.8,5.4,85,0.00,,,2.38,WUHU216HW,2013-01-31 02:29:00,
2013-01-30 21:34:00,46.1,41.9,29.54,WSW,248,3.1,5.4,85,0.00,,,2.38,WUHU216HW,2013-01-31 02:34:00,
2013-01-30 21:39:00,46.3,42.0,29.54,SW,225,3.4,4.3,85,0.00,,,2.38,WUHU216HW,2013-01-31 02:39:00,
2013-01-30 21:44:00,46.3,41.4,29.53,WSW,248,3.4,5.1,83,0.00,,,2.38,WUHU216HW,2013-01-31 02:44:00,
2013-01-30 21:49:00,46.3,41.8,29.53,WNW,293,2.0,5.1,84,0.00,,,2.38,WUHU216HW,2013-01-31 02:49:00,
2013-01-30 21:54:00,46.1,41.2,29.53,West,270,4.0,4.0,83,0.00,,,2.38,WUHU216HW,2013-01-31 02:54:00,
2013-01-30 21:59:00,46.1,41.2,29.53,West,270,4.0,4.7,83,0.00,,,2.38,WUHU216HW,2013-01-31 02:59:00,
2013-01-30 22:04:00,46.3,41.4,29.53,WNW,293,4.7,5.6,83,0.00,,,2.38,WUHU216HW,2013-01-31 03:04:00,
2013-01-30 22:09:00,46.3,40.8,29.52,West,270,4.7,5.6,81,0.00,,,2.38,WUHU216HW,2013-01-31 03:09:00,
2013-01-30 22:14:00,46.1,41.0,29.51,West,270,5.8,5.8,82,0.00,,,2.38,WUHU216HW,2013-01-31 03:14:00,
2013-01-30 22:19:00,45.9,41.0,29.52,WSW,248,5.4,6.9,83,0.00,,,2.38,WUHU216HW,2013-01-31 03:19:00,
2013-01-30 22:24:00,45.7,41.2,29.54,West,270,5.8,7.4,84,0.00,,,2.38,WUHU216HW,2013-01-31 03:24:00,
2013-01-30 22:29:00,45.5,41.1,29.53,WNW,293,6.9,7.6,84,0.00,,,2.38,WUHU216HW,2013-01-31 03:29:00,
2013-01-30 22:34:00,45.4,41.1,29.54,WSW,248,6.9,9.2,85,0.00,,,2.38,WUHU216HW,2013-01-31 03:34:00,
2013-01-30 22:39:00,45.2,41.6,29.54,NNW,338,6.0,9.6,87,0.01,,,2.40,WUHU216HW,2013-01-31 03:39:00,
2013-01-30 22:44:00,44.3,40.1,29.55,NW,315,7.8,9.6,85,0.02,,,2.40,WUHU216HW,2013-01-31 03:44:00,
2013-01-30 22:49:00,43.4,39.4,29.57,WNW,293,6.3,8.7,86,0.02,,,2.40,WUHU216HW,2013-01-31 03:49:00,
2013-01-30 22:54:00,43.2,39.2,29.58,WNW,293,5.8,7.8,86,0.03,,,2.42,WUHU216HW,2013-01-31 03:54:00,
2013-01-30 22:59:00,43.0,39.1,29.58,NW,315,6.9,7.8,86,0.03,,,2.42,WUHU216HW,2013-01-31 03:59:00,
2013-01-30 23:04:00,43.0,39.4,29.58,NW,315,4.3,7.8,87,0.03,,,2.42,WUHU216HW,2013-01-31 04:04:00,
2013-01-30 23:09:00,42.8,38.9,29.58,WNW,293,6.7,6.7,86,0.03,,,2.42,WUHU216HW,2013-01-31 04:09:00,
2013-01-30 23:14:00,42.8,38.9,29.59,WSW,248,8.1,8.1,86,0.03,,,2.42,WUHU216HW,2013-01-31 04:14:00,
2013-01-30 23:19:00,42.8,38.6,29.60,NNW,338,6.3,8.5,85,0.03,,,2.42,WUHU216HW,2013-01-31 04:19:00,
2013-01-30 23:24:00,42.8,38.6,29.61,West,270,6.9,8.5,85,0.03,,,2.42,WUHU216HW,2013-01-31 04:24:00,
2013-01-30 23:29:00,42.7,38.4,29.62,West,270,6.7,7.2,85,0.03,,,2.42,WUHU216HW,2013-01-31 04:29:00,
2013-01-30 23:34:00,42.7,38.4,29.62,NW,315,4.7,7.6,85,0.03,,,2.42,WUHU216HW,2013-01-31 04:34:00,
2013-01-30 23:39:00,42.5,37.6,29.62,West,270,4.9,8.7,83,0.02,,,2.42,WUHU216HW,2013-01-31 04:39:00,
2013-01-30 23:44:00,42.5,37.6,29.62,WNW,293,6.3,8.7,83,0.01,,,2.42,WUHU216HW,2013-01-31 04:44:00,
2013-01-30 23:49:00,42.5,37.0,29.62,WSW,248,6.3,10.1,81,0.00,,,2.42,WUHU216HW,2013-01-31 04:49:00,
2013-01-30 23:54:00,42.3,36.8,29.63,West,270,5.8,10.1,81,0.00,,,2.42,WUHU216HW,2013-01-31 04:54:00,
2013-01-30 23:59:00,42.1,36.0,29.63,WNW,293,6.9,9.6,79,0.00,,,2.42,WUHU216HW,2013-01-31 04:59:00,